Météo par heure à Jurowce

Ce jour, 20 Juin, Dimanche

Heure Température Précipitation Vent Pression Humidité
00:00 +20°C° 0 mm 2 m/s 752 mmHg 86%
01:00 +19°C° 0 mm 2 m/s 752 mmHg 88%
02:00 +19°C° 0 mm 2 m/s 752 mmHg 90%
03:00 +19°C° 0 mm 2 m/s 751 mmHg 90%
04:00 +19°C° 0 mm 2 m/s 751 mmHg 90%
05:00 +18°C° 0 mm 2 m/s 751 mmHg 91%
06:00 +20°C° 0 mm 2 m/s 751 mmHg 84%
07:00 +22°C° 0 mm 3 m/s 751 mmHg 78%
08:00 +25°C° 0 mm 4 m/s 751 mmHg 71%
09:00 +26°C° 0 mm 4 m/s 751 mmHg 66%
10:00 +28°C° 0 mm 4 m/s 751 mmHg 62%
11:00 +29°C° 0 mm 4 m/s 751 mmHg 57%
12:00 +30°C° 0 mm 4 m/s 751 mmHg 54%
13:00 +30°C° 0 mm 4 m/s 750 mmHg 51%
14:00 +32°C° 0 mm 4 m/s 750 mmHg 47%
15:00 +30°C° 0.1 mm 4 m/s 750 mmHg 52%
16:00 +30°C° 0.1 mm 4 m/s 749 mmHg 56%
17:00 +29°C° 0.1 mm 4 m/s 749 mmHg 61%
18:00 +28°C° 0.2 mm 4 m/s 749 mmHg 67%
19:00 +26°C° 0.2 mm 3 m/s 749 mmHg 74%
20:00 +25°C° 0.2 mm 2 m/s 749 mmHg 80%
21:00 +24°C° 0.2 mm 2 m/s 749 mmHg 83%
22:00 +23°C° 0.2 mm 2 m/s 749 mmHg 86%
23:00 +21°C° 0.2 mm 2 m/s 749 mmHg 88%

Demain, 21 Juin, Lundi

Heure Température Précipitation Vent Pression Humidité
00:00 +21°C° 0 mm 2 m/s 749 mmHg 90%
01:00 +20°C° 0 mm 2 m/s 749 mmHg 91%
02:00 +20°C° 0 mm 3 m/s 749 mmHg 92%
03:00 +19°C° 0 mm 3 m/s 748 mmHg 92%
04:00 +19°C° 0 mm 3 m/s 748 mmHg 92%
05:00 +19°C° 0 mm 3 m/s 748 mmHg 93%
06:00 +20°C° 0 mm 3 m/s 748 mmHg 87%
07:00 +22°C° 0 mm 4 m/s 748 mmHg 81%
08:00 +23°C° 0 mm 4 m/s 748 mmHg 75%
09:00 +26°C° 0 mm 4 m/s 748 mmHg 68%
10:00 +27°C° 0 mm 5 m/s 748 mmHg 61%
11:00 +28°C° 0 mm 5 m/s 748 mmHg 55%
12:00 +29°C° 0 mm 5 m/s 748 mmHg 54%
13:00 +29°C° 0 mm 5 m/s 747 mmHg 53%
14:00 +30°C° 0 mm 5 m/s 747 mmHg 52%
15:00 +29°C° 0.1 mm 5 m/s 747 mmHg 55%
16:00 +29°C° 0.1 mm 4 m/s 747 mmHg 58%
17:00 +28°C° 0.1 mm 4 m/s 746 mmHg 61%
18:00 +27°C° 0.1 mm 3 m/s 746 mmHg 67%
19:00 +26°C° 0.1 mm 3 m/s 746 mmHg 73%
20:00 +25°C° 0.1 mm 2 m/s 746 mmHg 79%
21:00 +24°C° 0 mm 2 m/s 746 mmHg 82%
22:00 +22°C° 0 mm 3 m/s 746 mmHg 85%
23:00 +21°C° 0 mm 3 m/s 747 mmHg 89%

Après-demain, 22 Juin, Mardi

Heure Température Précipitation Vent Pression Humidité
00:00 +20°C° 0 mm 3 m/s 746 mmHg 90%
01:00 +20°C° 0 mm 2 m/s 746 mmHg 91%
02:00 +20°C° 0 mm 2 m/s 746 mmHg 93%
03:00 +20°C° 0 mm 2 m/s 746 mmHg 93%
04:00 +19°C° 0 mm 2 m/s 746 mmHg 93%
05:00 +19°C° 0 mm 2 m/s 746 mmHg 94%
06:00 +21°C° 0 mm 3 m/s 746 mmHg 87%
07:00 +24°C° 0 mm 3 m/s 747 mmHg 81%
08:00 +26°C° 0 mm 4 m/s 747 mmHg 74%
09:00 +27°C° 0 mm 4 m/s 747 mmHg 69%
10:00 +28°C° 0 mm 4 m/s 747 mmHg 63%
11:00 +29°C° 0 mm 4 m/s 747 mmHg 57%
12:00 +30°C° 0.1 mm 4 m/s 747 mmHg 55%
13:00 +32°C° 0.1 mm 4 m/s 747 mmHg 53%
14:00 +32°C° 0.1 mm 4 m/s 747 mmHg 52%
15:00 +30°C° 0.3 mm 4 m/s 747 mmHg 58%
16:00 +29°C° 0.3 mm 4 m/s 747 mmHg 64%
17:00 +28°C° 0.3 mm 3 m/s 748 mmHg 71%
18:00 +26°C° 0.6 mm 3 m/s 748 mmHg 77%
19:00 +25°C° 0.6 mm 2 m/s 748 mmHg 84%
20:00 +23°C° 0.6 mm 1 m/s 748 mmHg 91%
21:00 +23°C° 0.7 mm 1 m/s 748 mmHg 92%
22:00 +22°C° 0.7 mm 1 m/s 748 mmHg 93%
23:00 +22°C° 0.7 mm 1 m/s 748 mmHg 94%

23 Juin, Mercredi

Heure Température Précipitation Vent Pression Humidité
00:00 +20°C° 0.5 mm 2 m/s 748 mmHg 94%
01:00 +20°C° 0.5 mm 2 m/s 748 mmHg 95%
02:00 +20°C° 0.5 mm 2 m/s 748 mmHg 95%
03:00 +20°C° 0.2 mm 2 m/s 748 mmHg 95%
04:00 +20°C° 0.2 mm 2 m/s 749 mmHg 95%
05:00 +21°C° 0.2 mm 1 m/s 749 mmHg 95%
06:00 +21°C° 0.3 mm 2 m/s 749 mmHg 90%
07:00 +24°C° 0.3 mm 2 m/s 749 mmHg 86%
08:00 +25°C° 0.3 mm 2 m/s 749 mmHg 82%
09:00 +27°C° 0.1 mm 2 m/s 749 mmHg 75%
10:00 +29°C° 0.1 mm 2 m/s 749 mmHg 68%
11:00 +30°C° 0.1 mm 3 m/s 749 mmHg 62%
12:00 +31°C° 0.1 mm 3 m/s 749 mmHg 59%
13:00 +33°C° 0.1 mm 3 m/s 749 mmHg 55%
14:00 +33°C° 0.1 mm 3 m/s 749 mmHg 52%
15:00 +33°C° 0 mm 3 m/s 749 mmHg 53%
16:00 +32°C° 0 mm 2 m/s 749 mmHg 54%
17:00 +32°C° 0 mm 2 m/s 749 mmHg 55%
18:00 +31°C° 0.1 mm 2 m/s 749 mmHg 61%
19:00 +29°C° 0.1 mm 1 m/s 749 mmHg 66%
20:00 +28°C° 0.1 mm 1 m/s 749 mmHg 72%
21:00 +27°C° 0.8 mm 1 m/s 749 mmHg 78%
22:00 +25°C° 0.8 mm 1 m/s 749 mmHg 84%
23:00 +24°C° 0.8 mm 1 m/s 750 mmHg 90%

24 Juin, Jeudi

Heure Température Précipitation Vent Pression Humidité
00:00 +23°C° 0.4 mm 1 m/s 750 mmHg 91%
01:00 +21°C° 0.4 mm 2 m/s 750 mmHg 91%
02:00 +20°C° 0.4 mm 2 m/s 750 mmHg 92%
03:00 +20°C° 0.1 mm 2 m/s 750 mmHg 92%
04:00 +19°C° 0.1 mm 2 m/s 750 mmHg 92%
05:00 +19°C° 0.1 mm 2 m/s 750 mmHg 92%
06:00 +20°C° 0 mm 2 m/s 751 mmHg 90%
07:00 +23°C° 0 mm 2 m/s 751 mmHg 87%
08:00 +24°C° 0 mm 2 m/s 751 mmHg 84%
09:00 +26°C° 0 mm 2 m/s 751 mmHg 78%
10:00 +27°C° 0 mm 2 m/s 751 mmHg 72%
11:00 +28°C° 0 mm 2 m/s 751 mmHg 66%
12:00 +29°C° 0 mm 2 m/s 751 mmHg 63%
13:00 +30°C° 0 mm 3 m/s 751 mmHg 60%
14:00 +30°C° 0 mm 3 m/s 751 mmHg 57%
15:00 +30°C° 0 mm 2 m/s 751 mmHg 57%
16:00 +30°C° 0 mm 2 m/s 751 mmHg 57%
17:00 +30°C° 0 mm 2 m/s 751 mmHg 57%
18:00 +28°C° 0.1 mm 2 m/s 751 mmHg 63%
19:00 +27°C° 0.1 mm 2 m/s 750 mmHg 70%
20:00 +25°C° 0.1 mm 2 m/s 750 mmHg 76%
21:00 +24°C° 0.1 mm 2 m/s 750 mmHg 79%
22:00 +23°C° 0.1 mm 2 m/s 750 mmHg 81%
23:00 +21°C° 0.1 mm 2 m/s 750 mmHg 83%

25 Juin, Vendredi

Heure Température Précipitation Vent Pression Humidité
00:00 +20°C° 0.1 mm 2 m/s 750 mmHg 87%
01:00 +20°C° 0.1 mm 2 m/s 750 mmHg 91%
02:00 +20°C° 0.1 mm 3 m/s 749 mmHg 95%
03:00 +20°C° 0.2 mm 2 m/s 749 mmHg 96%
04:00 +20°C° 0.2 mm 2 m/s 749 mmHg 97%
05:00 +19°C° 0.2 mm 2 m/s 749 mmHg 98%
06:00 +20°C° 0.7 mm 2 m/s 749 mmHg 97%
07:00 +21°C° 0.7 mm 2 m/s 749 mmHg 96%
08:00 +21°C° 0.7 mm 3 m/s 748 mmHg 95%
09:00 +24°C° 0.4 mm 3 m/s 748 mmHg 89%
10:00 +26°C° 0.4 mm 3 m/s 748 mmHg 82%
11:00 +28°C° 0.4 mm 3 m/s 748 mmHg 76%
12:00 +28°C° 1.6 mm 3 m/s 748 mmHg 76%
13:00 +28°C° 1.6 mm 3 m/s 748 mmHg 76%
14:00 +28°C° 1.6 mm 3 m/s 748 mmHg 77%
15:00 +27°C° 0.2 mm 3 m/s 748 mmHg 77%
16:00 +27°C° 0.2 mm 4 m/s 748 mmHg 77%
17:00 +26°C° 0.2 mm 4 m/s 747 mmHg 77%
18:00 +25°C° 0.3 mm 4 m/s 748 mmHg 81%
19:00 +22°C° 0.3 mm 4 m/s 748 mmHg 85%
20:00 +21°C° 0.3 mm 5 m/s 749 mmHg 90%
21:00 +20°C° 0 mm 4 m/s 749 mmHg 91%
22:00 +18°C° 0 mm 4 m/s 750 mmHg 91%
23:00 +17°C° 0 mm 4 m/s 750 mmHg 92%
Voir plus

Nous avons besoin de votre consentement

Meteoprog et ses fournisseurs de services peuvent stocker et accéder à des données personnelles telles que des cookies, des identifiants d'appareils ou d'autres technologies similaires sur votre appareil et traiter ces données pour personnaliser le contenu et les publicités, ainsi que pour fournir des fonctionnalités de médias sociaux et analyser le trafic.

  • Stocker et/ou accéder à des informations sur votre appareil

    Des cookies, des identifiants d'appareils ou d'autres informations peuvent être stockés ou accessibles sur votre appareil aux fins indiquées ci-dessus.

  • Annonces et contenus personnalisés, mesure des annonces et des contenus, connaissance de l'audience et développement de produits

    Les annonces et le contenu peuvent être personnalisés en fonction d'un profil. D'autres données peuvent être ajoutées pour mieux personnaliser les annonces et le contenu. Les performances des publicités et du contenu peuvent être mesurées. Il est possible d'obtenir des informations sur le public qui a vu les publicités et le contenu. Ces données peuvent être utilisées pour développer ou améliorer l'expérience de l'utilisateur, les systèmes et les logiciels.

En cliquant sur "J'accepte", vous autorisez l'utilisation de cookies, des identifiants d'appareils, des balises web ou d'autres technologies similaires. Vos paramètres peuvent être modifiés dans le navigateur de votre appareil.

Dans certains cas, des intérêts légitimes peuvent être invoqués plutôt qu'un consentement. Vous pouvez en savoir plus à ce sujet dans notre Politique de confidentialité et de cookies.